Regional Weather Roundup
Issued by NWS Goodland, KS

Home | Current Version | Previous Version | Text Only | Print | Product List | Glossary Off
Versions: 1 2 3 4 5 6 7 8 9 10 11 12 13 14 15 16 17 18 19 20 21 22 23 24 25 26 27 28 29 30 31 32 33 34 35 36 37 38 39 40 41 42 43 44 45 46 47 48 49 50

000
ASUS43 KGLD 020408
RWRGLD

GOODLAND FORECAST AREA HOURLY WEATHER ROUNDUP
NATIONAL WEATHER SERVICE GOODLAND KS
1000 PM MDT FRI AUG 01 2014

...OFFICIAL OBSERVATIONS...

CITY           SKY/WX    TMP DP  RH WIND       PRES   REMARKS
GOODLAND KS    PTCLDY    66  55  67 S8        30.20R
HILL CITY KS   PTCLDY    68  54  60 CALM      30.13R
IMPERIAL NEB   CLEAR     67  55  65 SE8       30.16R
MCCOOK NEB     PTCLDY    71  58  63 SE6       30.14R
AKRON CO       CLEAR     69  51  52 SE12      30.24R
BURLINGTON CO  PTCLDY    68  52  56 S7        30.23R
LIMON CO       PTCLDY    62  49  62 SW5       30.30R
$$

...UNOFFICIAL OBSERVATIONS...

CITY           SKY/WX    TMP DP  RH WIND       PRES   REMARKS
COLBY KS       CLEAR     70  55  60 SE6       30.18S
GOVE KS          N/A     66  32  28 MISG        N/A
LENORA KS        N/A     71  32  23 MISG        N/A
NORTON KS      CLEAR     68  54  60 E5        30.13R
OBERLIN KS     FAIR      70  50  49 S6        30.15R
ST FRANCIS KS  CLEAR     70  52  52 S12       30.17R
TRIBUNE KS     PTCLDY    66 N/A N/A E3        30.21R
WAKEENEY KS      N/A     70  47  42 MISG        N/A
KIT CARSON CO    N/A     70  57  62 N7          N/A
WRAY CO          N/A     72  52  49 S3        30.18R
YUMA CO          N/A     66  55  68 S8          N/A
$$


USA.gov is the U.S. government's official web portal to all federal, state and local government web resources and services.